contact:dominique.lefevre@mio.osupytheas.fr, maurice.libes@osupytheas.fr, didier.mallarino@osupytheas.fr
Project:EMSO http://www.emso-fr.org/EMSO-France
Depth: 2436.0 m
Title:EMSO Ligure Ouest : Data MII capteur CSTAR
DateTime,Latitude,Longitude,Instrument_Serial,Reference_Counts,Signal_Counts,Corrected_Signal_raw_counts,Calculated_Beam_c_inverse_meters,Internal_thermistor_counts
DateTime,Latitude,Longitude,Instrument_Serial,Reference_Counts,Signal_Counts,Corrected_Signal_raw_counts,Calculated_Beam_c_inverse_meters,Internal_thermistor_counts
2023-04-28T00:00:57,42.805,6.029,CST-1368DR,4315,4715,11602,01.188,552
2023-04-28T00:03:58,42.805,6.029,CST-1368DR,4315,4685,11529,01.214,551
2023-04-28T00:07:00,42.805,6.029,CST-1368DR,4314,4631,11398,01.259,551
2023-04-28T00:10:02,42.805,6.029,CST-1368DR,4313,4454,10965,01.414,552
2023-04-28T00:13:03,42.805,6.029,CST-1368DR,4309,3943,9717,01.898,552
2023-04-28T00:16:05,42.805,6.029,CST-1368DR,4306,3420,8432,02.465,552
2023-04-28T00:19:06,42.805,6.029,CST-1368DR,4303,2976,7343,03.018,551
2023-04-28T00:22:08,42.805,6.029,CST-1368DR,4303,3016,7441,02.965,551
2023-04-28T00:25:09,42.805,6.029,CST-1368DR,4305,3354,8271,02.542,551
2023-04-28T00:28:11,42.805,6.029,CST-1368DR,4311,4199,10342,01.648,551
2023-04-28T00:31:13,42.805,6.029,CST-1368DR,4313,4510,11103,01.364,552
2023-04-28T00:34:14,42.805,6.029,CST-1368DR,4314,4633,11403,01.258,552
2023-04-28T00:37:16,42.805,6.029,CST-1368DR,4315,4694,11550,01.206,551
2023-04-28T00:40:17,42.805,6.029,CST-1368DR,4315,4695,11552,01.206,551
2023-04-28T00:43:19,42.805,6.029,CST-1368DR,4314,4639,11419,01.252,551
2023-04-28T00:46:20,42.805,6.029,CST-1368DR,4314,4589,11294,01.296,551
2023-04-28T00:49:22,42.805,6.029,CST-1368DR,4314,4662,11474,01.233,552
2023-04-28T00:52:24,42.805,6.029,CST-1368DR,4315,4720,11614,01.184,552
2023-04-28T00:55:25,42.805,6.029,CST-1368DR,4315,4730,11639,01.176,552
2023-04-28T00:58:27,42.805,6.029,CST-1368DR,4315,4725,11626,01.180,551
2023-04-28T01:01:28,42.805,6.029,CST-1368DR,4315,4726,11628,01.180,552
2023-04-28T01:04:30,42.805,6.029,CST-1368DR,4313,4482,11034,01.389,552
2023-04-28T01:07:32,42.805,6.029,CST-1368DR,4312,4422,10888,01.443,551
2023-04-28T01:10:33,42.805,6.029,CST-1368DR,4312,4444,10942,01.423,551
2023-04-28T01:13:35,42.805,6.029,CST-1368DR,4314,4640,11419,01.252,551
2023-04-28T01:16:36,42.805,6.029,CST-1368DR,4314,4604,11332,01.283,551
2023-04-28T01:19:38,42.805,6.029,CST-1368DR,4312,4430,10907,01.436,551
2023-04-28T01:22:39,42.805,6.029,CST-1368DR,4312,4408,10853,01.455,551
2023-04-28T01:25:41,42.805,6.029,CST-1368DR,4314,4589,11295,01.296,551
2023-04-28T01:28:43,42.805,6.029,CST-1368DR,4314,4668,11489,01.228,552
2023-04-28T01:31:44,42.805,6.029,CST-1368DR,4314,4649,11442,01.244,552
2023-04-28T01:34:46,42.805,6.029,CST-1368DR,4314,4667,11486,01.229,551
2023-04-28T01:37:47,42.805,6.029,CST-1368DR,4314,4606,11337,01.281,551
2023-04-28T01:40:49,42.805,6.029,CST-1368DR,4313,4567,11242,01.315,551
2023-04-28T01:43:50,42.805,6.029,CST-1368DR,4312,4399,10832,01.463,551
2023-04-28T01:46:52,42.805,6.029,CST-1368DR,4312,4397,10827,01.465,551
2023-04-28T01:49:54,42.805,6.029,CST-1368DR,4314,4622,11375,01.268,551
2023-04-28T01:52:55,42.805,6.029,CST-1368DR,4314,4684,11529,01.214,551
2023-04-28T01:55:57,42.805,6.029,CST-1368DR,4315,4713,11598,01.190,552
2023-04-28T01:58:58,42.805,6.029,CST-1368DR,4315,4713,11596,01.191,552
2023-04-28T02:02:00,42.805,6.029,CST-1368DR,4315,4726,11630,01.179,551
2023-04-28T02:05:02,42.805,6.029,CST-1368DR,4315,4726,11629,01.179,551
2023-04-28T02:08:03,42.805,6.029,CST-1368DR,4315,4726,11630,01.179,551
2023-04-28T02:11:05,42.805,6.029,CST-1368DR,4315,4727,11633,01.178,552
2023-04-28T02:14:06,42.805,6.029,CST-1368DR,4315,4732,11643,01.174,552
2023-04-28T02:17:08,42.805,6.029,CST-1368DR,4315,4728,11635,01.177,551
2023-04-28T02:20:09,42.805,6.029,CST-1368DR,4315,4730,11639,01.176,551
2023-04-28T02:23:11,42.805,6.029,CST-1368DR,4315,4736,11654,01.171,552
2023-04-28T02:26:13,42.805,6.029,CST-1368DR,4315,4725,11627,01.180,552
2023-04-28T02:29:14,42.805,6.029,CST-1368DR,4315,4734,11649,01.172,552
2023-04-28T02:32:16,42.805,6.029,CST-1368DR,4315,4727,11633,01.178,552
2023-04-28T02:35:17,42.805,6.029,CST-1368DR,4315,4728,11635,01.177,552
2023-04-28T02:38:19,42.805,6.029,CST-1368DR,4315,4729,11636,01.177,551
2023-04-28T02:41:20,42.805,6.029,CST-1368DR,4315,4729,11637,01.176,552
2023-04-28T02:44:22,42.805,6.029,CST-1368DR,4315,4732,11645,01.174,551
2023-04-28T02:47:24,42.805,6.029,CST-1368DR,4315,4729,11637,01.176,552
2023-04-28T02:50:25,42.805,6.029,CST-1368DR,4315,4726,11630,01.179,551
2023-04-28T02:53:27,42.805,6.029,CST-1368DR,4315,4729,11638,01.176,551
2023-04-28T02:56:28,42.805,6.029,CST-1368DR,4315,4734,11648,01.173,552
2023-04-28T02:59:30,42.805,6.029,CST-1368DR,4315,4731,11641,01.175,552
2023-04-28T03:02:31,42.805,6.029,CST-1368DR,4315,4730,11640,01.175,552
2023-04-28T03:05:33,42.805,6.029,CST-1368DR,4315,4727,11632,01.178,551
2023-04-28T03:08:35,42.805,6.029,CST-1368DR,4315,4728,11635,01.177,551
2023-04-28T03:11:36,42.805,6.029,CST-1368DR,4315,4728,11635,01.177,551
2023-04-28T03:14:38,42.805,6.029,CST-1368DR,4315,4730,11640,01.175,552
2023-04-28T03:17:39,42.805,6.029,CST-1368DR,4315,4726,11630,01.179,552
2023-04-28T03:20:41,42.805,6.029,CST-1368DR,4315,4732,11644,01.174,552
2023-04-28T03:23:43,42.805,6.029,CST-1368DR,4315,4732,11643,01.174,551
2023-04-28T03:26:44,42.805,6.029,CST-1368DR,4315,4722,11619,01.183,551
2023-04-28T03:29:46,42.805,6.029,CST-1368DR,4315,4724,11624,01.181,551
2023-04-28T03:32:47,42.805,6.029,CST-1368DR,4315,4727,11633,01.178,552
2023-04-28T03:35:49,42.805,6.029,CST-1368DR,4315,4728,11633,01.178,551
2023-04-28T03:38:50,42.805,6.029,CST-1368DR,4315,4728,11635,01.177,551
2023-04-28T03:41:52,42.805,6.029,CST-1368DR,4315,4729,11636,01.177,552
2023-04-28T03:44:54,42.805,6.029,CST-1368DR,4315,4727,11632,01.178,551
2023-04-28T03:47:55,42.805,6.029,CST-1368DR,4314,4719,11616,01.184,551
2023-04-28T03:50:57,42.805,6.029,CST-1368DR,4314,4728,11636,01.177,551
2023-04-28T03:53:58,42.805,6.029,CST-1368DR,4315,4726,11630,01.179,552
2023-04-28T03:57:00,42.805,6.029,CST-1368DR,4315,4729,11636,01.177,551
2023-04-28T04:00:01,42.805,6.029,CST-1368DR,4314,4733,11648,01.173,552
2023-04-28T04:03:03,42.805,6.029,CST-1368DR,4315,4729,11638,01.176,552
2023-04-28T04:06:05,42.805,6.029,CST-1368DR,4315,4728,11635,01.177,552
2023-04-28T04:09:06,42.805,6.029,CST-1368DR,4314,4730,11643,01.174,552
2023-04-28T04:12:08,42.805,6.029,CST-1368DR,4315,4727,11633,01.178,552
2023-04-28T04:15:09,42.805,6.029,CST-1368DR,4314,4728,11638,01.176,551
2023-04-28T04:18:11,42.805,6.029,CST-1368DR,4315,4730,11640,01.175,551
2023-04-28T04:21:12,42.805,6.029,CST-1368DR,4314,4727,11634,01.177,551
2023-04-28T04:24:14,42.805,6.029,CST-1368DR,4314,4724,11627,01.180,552
2023-04-28T04:27:16,42.805,6.029,CST-1368DR,4314,4720,11616,01.184,551
2023-04-28T04:30:17,42.805,6.029,CST-1368DR,4315,4731,11641,01.175,552
2023-04-28T04:33:19,42.805,6.029,CST-1368DR,4315,4727,11632,01.178,552
2023-04-28T04:36:20,42.805,6.029,CST-1368DR,4314,4730,11643,01.174,552
2023-04-28T04:39:22,42.805,6.029,CST-1368DR,4315,4727,11632,01.178,551
2023-04-28T04:42:24,42.805,6.029,CST-1368DR,4314,4730,11641,01.175,551
2023-04-28T04:45:25,42.805,6.029,CST-1368DR,4314,4736,11656,01.170,551
2023-04-28T04:48:27,42.805,6.029,CST-1368DR,4315,4728,11635,01.177,551
2023-04-28T04:51:28,42.805,6.029,CST-1368DR,4314,4731,11644,01.174,552
2023-04-28T04:54:30,42.805,6.029,CST-1368DR,4314,4727,11633,01.178,551
2023-04-28T04:57:31,42.805,6.029,CST-1368DR,4315,4730,11638,01.176,552
2023-04-28T05:00:33,42.805,6.029,CST-1368DR,4315,4726,11630,01.179,551
2023-04-28T05:03:35,42.805,6.029,CST-1368DR,4314,4730,11641,01.175,551
2023-04-28T05:06:36,42.805,6.029,CST-1368DR,4314,4723,11624,01.181,551
2023-04-28T05:09:38,42.805,6.029,CST-1368DR,4314,4728,11636,01.177,552
2023-04-28T05:12:39,42.805,6.029,CST-1368DR,4314,4732,11646,01.173,551
2023-04-28T05:15:41,42.805,6.029,CST-1368DR,4314,4729,11640,01.175,552
2023-04-28T05:18:42,42.805,6.029,CST-1368DR,4314,4729,11640,01.175,552
2023-04-28T05:21:44,42.805,6.029,CST-1368DR,4315,4732,11644,01.174,552
2023-04-28T05:24:46,42.805,6.029,CST-1368DR,4314,4731,11645,01.174,551
2023-04-28T05:27:47,42.805,6.029,CST-1368DR,4314,4735,11655,01.170,551
2023-04-28T05:30:49,42.805,6.029,CST-1368DR,4314,4730,11641,01.175,551
2023-04-28T05:33:50,42.805,6.029,CST-1368DR,4314,4729,11640,01.175,551
2023-04-28T05:36:52,42.805,6.029,CST-1368DR,4315,4730,11640,01.175,551
2023-04-28T05:39:54,42.805,6.029,CST-1368DR,4314,4732,11648,01.173,551
2023-04-28T05:42:55,42.805,6.029,CST-1368DR,4314,4732,11646,01.173,552
2023-04-28T05:45:57,42.805,6.029,CST-1368DR,4315,4734,11648,01.173,551
2023-04-28T05:48:58,42.805,6.029,CST-1368DR,4315,4731,11643,01.174,552
2023-04-28T05:52:00,42.805,6.029,CST-1368DR,4315,4733,11647,01.173,551
2023-04-28T05:55:01,42.805,6.029,CST-1368DR,4314,4731,11644,01.174,551
2023-04-28T05:58:03,42.805,6.029,CST-1368DR,4314,4733,11649,01.172,552
2023-04-28T06:01:05,42.805,6.029,CST-1368DR,4314,4733,11649,01.172,551
2023-04-28T06:04:06,42.805,6.029,CST-1368DR,4314,4731,11644,01.174,551
2023-04-28T06:07:08,42.805,6.029,CST-1368DR,4315,4731,11641,01.175,552
2023-04-28T06:10:09,42.805,6.029,CST-1368DR,4314,4733,11648,01.173,551
2023-04-28T06:13:11,42.805,6.029,CST-1368DR,4314,4737,11659,01.169,551
2023-04-28T06:16:12,42.805,6.029,CST-1368DR,4314,4733,11650,01.172,551
2023-04-28T06:19:14,42.805,6.029,CST-1368DR,4314,4730,11643,01.174,551
2023-04-28T06:22:16,42.805,6.029,CST-1368DR,4314,4732,11646,01.173,552
2023-04-28T06:25:17,42.805,6.029,CST-1368DR,4314,4733,11649,01.172,552
2023-04-28T06:28:19,42.805,6.029,CST-1368DR,4314,4733,11649,01.172,551
2023-04-28T06:31:20,42.805,6.029,CST-1368DR,4315,4736,11653,01.171,552
2023-04-28T06:34:22,42.805,6.029,CST-1368DR,4314,4732,11648,01.173,552
2023-04-28T06:37:24,42.805,6.029,CST-1368DR,4314,4735,11655,01.170,552
2023-04-28T06:40:25,42.805,6.029,CST-1368DR,4315,4734,11648,01.173,552
2023-04-28T06:43:27,42.805,6.029,CST-1368DR,4314,4732,11648,01.173,551
2023-04-28T06:46:28,42.805,6.029,CST-1368DR,4314,4732,11646,01.173,551
2023-04-28T06:49:30,42.805,6.029,CST-1368DR,4314,4733,11650,01.172,552
2023-04-28T06:52:31,42.805,6.029,CST-1368DR,4314,4736,11657,01.170,551
2023-04-28T06:55:33,42.805,6.029,CST-1368DR,4315,4736,11653,01.171,552
2023-04-28T06:58:35,42.805,6.029,CST-1368DR,4315,4736,11654,01.171,551
2023-04-28T07:01:36,42.805,6.029,CST-1368DR,4314,4734,11651,01.172,552
2023-04-28T07:04:38,42.805,6.029,CST-1368DR,4315,4732,11645,01.174,551
2023-04-28T07:07:39,42.805,6.029,CST-1368DR,4315,4734,11648,01.173,551
2023-04-28T07:10:41,42.805,6.029,CST-1368DR,4314,4734,11652,01.171,551
2023-04-28T07:13:42,42.805,6.029,CST-1368DR,4314,4734,11651,01.172,552
2023-04-28T07:16:44,42.805,6.029,CST-1368DR,4314,4735,11654,01.171,552
2023-04-28T07:19:46,42.805,6.029,CST-1368DR,4314,4735,11654,01.171,551
2023-04-28T07:22:47,42.805,6.029,CST-1368DR,4314,4736,11657,01.170,552
2023-04-28T07:25:49,42.805,6.029,CST-1368DR,4314,4734,11653,01.171,552
2023-04-28T07:28:50,42.805,6.029,CST-1368DR,4314,4735,11655,01.170,551
2023-04-28T07:31:52,42.805,6.029,CST-1368DR,4314,4736,11657,01.170,551
2023-04-28T07:34:54,42.805,6.029,CST-1368DR,4314,4736,11656,01.170,552
2023-04-28T07:37:55,42.805,6.029,CST-1368DR,4314,4734,11652,01.171,552
2023-04-28T07:40:57,42.805,6.029,CST-1368DR,4314,4736,11657,01.170,551
2023-04-28T07:43:58,42.805,6.029,CST-1368DR,4314,4736,11656,01.170,551
2023-04-28T07:47:00,42.805,6.029,CST-1368DR,4314,4730,11641,01.175,551
2023-04-28T07:50:01,42.805,6.029,CST-1368DR,4314,4736,11657,01.170,551
2023-04-28T07:53:03,42.805,6.029,CST-1368DR,4314,4737,11659,01.169,552
2023-04-28T07:56:05,42.805,6.029,CST-1368DR,4314,4736,11657,01.170,551
2023-04-28T07:59:06,42.805,6.029,CST-1368DR,4314,4735,11654,01.171,552
2023-04-28T08:02:08,42.805,6.029,CST-1368DR,4314,4730,11641,01.175,552
2023-04-28T08:05:09,42.805,6.029,CST-1368DR,4314,4732,11647,01.173,551
2023-04-28T08:08:11,42.805,6.029,CST-1368DR,4314,4738,11661,01.168,551
2023-04-28T08:11:12,42.805,6.029,CST-1368DR,4314,4735,11654,01.171,552
2023-04-28T08:14:14,42.805,6.029,CST-1368DR,4314,4733,11649,01.172,551
2023-04-28T08:17:16,42.805,6.029,CST-1368DR,4314,4733,11649,01.172,552
2023-04-28T08:20:17,42.805,6.029,CST-1368DR,4314,4736,11657,01.170,552
2023-04-28T08:23:19,42.805,6.029,CST-1368DR,4314,4732,11647,01.173,552
2023-04-28T08:26:20,42.805,6.029,CST-1368DR,4314,4727,11635,01.177,552
2023-04-28T08:29:22,42.805,6.029,CST-1368DR,4314,4734,11651,01.172,552
2023-04-28T08:32:25,42.805,6.029,CST-1368DR,4314,4734,11651,01.172,552
2023-04-28T08:35:27,42.805,6.029,CST-1368DR,4314,4736,11657,01.170,552
2023-04-28T08:38:28,42.805,6.029,CST-1368DR,4314,4736,11656,01.170,552
2023-04-28T08:41:30,42.805,6.029,CST-1368DR,4314,4735,11654,01.171,552
2023-04-28T08:44:31,42.805,6.029,CST-1368DR,4314,4735,11655,01.170,552
2023-04-28T08:47:33,42.805,6.029,CST-1368DR,4314,4739,11664,01.167,552
2023-04-28T08:50:35,42.805,6.029,CST-1368DR,4314,4737,11660,01.169,551
2023-04-28T08:53:36,42.805,6.029,CST-1368DR,4314,4737,11658,01.169,551
2023-04-28T08:56:38,42.805,6.029,CST-1368DR,4314,4736,11657,01.170,551
2023-04-28T08:59:39,42.805,6.029,CST-1368DR,4314,4734,11653,01.171,552
2023-04-28T09:02:41,42.805,6.029,CST-1368DR,4314,4733,11649,01.172,551
2023-04-28T09:05:42,42.805,6.029,CST-1368DR,4314,4732,11648,01.173,551
2023-04-28T09:08:44,42.805,6.029,CST-1368DR,4314,4735,11655,01.170,551
2023-04-28T09:11:46,42.805,6.029,CST-1368DR,4314,4736,11656,01.170,551
2023-04-28T09:14:47,42.805,6.029,CST-1368DR,4314,4739,11663,01.167,551
2023-04-28T09:17:49,42.805,6.029,CST-1368DR,4314,4735,11654,01.171,552
2023-04-28T09:20:50,42.805,6.029,CST-1368DR,4314,4737,11658,01.169,551
2023-04-28T09:23:52,42.805,6.029,CST-1368DR,4314,4737,11658,01.169,552
2023-04-28T09:26:54,42.805,6.029,CST-1368DR,4314,4736,11656,01.170,551
2023-04-28T09:29:55,42.805,6.029,CST-1368DR,4314,4734,11651,01.172,551
2023-04-28T09:32:57,42.805,6.029,CST-1368DR,4314,4732,11648,01.173,551
2023-04-28T09:35:58,42.805,6.029,CST-1368DR,4314,4731,11645,01.174,551
2023-04-28T09:39:00,42.805,6.029,CST-1368DR,4314,4736,11656,01.170,551
2023-04-28T09:42:01,42.805,6.029,CST-1368DR,4314,4739,11664,01.167,552
2023-04-28T09:45:03,42.805,6.029,CST-1368DR,4314,4736,11656,01.170,551
2023-04-28T09:48:05,42.805,6.029,CST-1368DR,4314,4734,11653,01.171,552
2023-04-28T09:51:06,42.805,6.029,CST-1368DR,4314,4733,11648,01.173,551
2023-04-28T09:54:08,42.805,6.029,CST-1368DR,4314,4733,11648,01.173,551
2023-04-28T09:57:09,42.805,6.029,CST-1368DR,4314,4731,11645,01.174,552
2023-04-28T10:00:11,42.805,6.029,CST-1368DR,4314,4731,11645,01.174,551
2023-04-28T10:03:12,42.805,6.029,CST-1368DR,4314,4732,11646,01.173,551
2023-04-28T10:06:14,42.805,6.029,CST-1368DR,4314,4731,11645,01.174,552
2023-04-28T10:09:16,42.805,6.029,CST-1368DR,4314,4733,11649,01.172,551
2023-04-28T10:12:17,42.805,6.029,CST-1368DR,4314,4736,11656,01.170,552
2023-04-28T10:15:19,42.805,6.029,CST-1368DR,4314,4733,11650,01.172,552
2023-04-28T10:18:20,42.805,6.029,CST-1368DR,4314,4736,11657,01.170,552
2023-04-28T10:21:22,42.805,6.029,CST-1368DR,4314,4736,11656,01.170,552
2023-04-28T10:24:24,42.805,6.029,CST-1368DR,4314,4736,11656,01.170,552
2023-04-28T10:27:25,42.805,6.029,CST-1368DR,4314,4737,11660,01.169,552
2023-04-28T10:30:27,42.805,6.029,CST-1368DR,4314,4732,11646,01.173,552
2023-04-28T10:33:28,42.805,6.029,CST-1368DR,4314,4726,11633,01.178,552
2023-04-28T10:36:30,42.805,6.029,CST-1368DR,4314,4734,11652,01.171,552
2023-04-28T10:39:31,42.805,6.029,CST-1368DR,4314,4733,11648,01.173,551
2023-04-28T10:42:33,42.805,6.029,CST-1368DR,4314,4739,11663,01.167,551
2023-04-28T10:45:35,42.805,6.029,CST-1368DR,4314,4734,11651,01.172,551
2023-04-28T10:48:36,42.805,6.029,CST-1368DR,4314,4736,11656,01.170,552
2023-04-28T10:51:38,42.805,6.029,CST-1368DR,4314,4734,11652,01.171,551
2023-04-28T10:54:39,42.805,6.029,CST-1368DR,4314,4733,11649,01.172,551
2023-04-28T10:57:41,42.805,6.029,CST-1368DR,4314,4730,11643,01.174,552
2023-04-28T11:00:43,42.805,6.029,CST-1368DR,4314,4730,11643,01.174,551
2023-04-28T11:03:44,42.805,6.029,CST-1368DR,4314,4733,11649,01.172,552
2023-04-28T11:06:46,42.805,6.029,CST-1368DR,4314,4736,11657,01.170,552
2023-04-28T11:09:47,42.805,6.029,CST-1368DR,4314,4736,11657,01.170,552
2023-04-28T11:12:49,42.805,6.029,CST-1368DR,4314,4733,11650,01.172,552
2023-04-28T11:15:50,42.805,6.029,CST-1368DR,4314,4732,11646,01.173,551
2023-04-28T11:18:52,42.805,6.029,CST-1368DR,4314,4733,11649,01.172,552
2023-04-28T11:21:54,42.805,6.029,CST-1368DR,4314,4737,11658,01.169,552
2023-04-28T11:24:55,42.805,6.029,CST-1368DR,4314,4733,11649,01.172,552
2023-04-28T11:27:57,42.805,6.029,CST-1368DR,4314,4733,11648,01.173,551
2023-04-28T11:30:58,42.805,6.029,CST-1368DR,4314,4733,11650,01.172,552
2023-04-28T11:34:00,42.805,6.029,CST-1368DR,4314,4733,11649,01.172,551
2023-04-28T11:37:01,42.805,6.029,CST-1368DR,4314,4730,11641,01.175,551
2023-04-28T11:40:03,42.805,6.029,CST-1368DR,4314,4733,11648,01.173,552
2023-04-28T11:43:05,42.805,6.029,CST-1368DR,4314,4740,11666,01.166,551
2023-04-28T11:46:06,42.805,6.029,CST-1368DR,4314,4731,11643,01.174,551
2023-04-28T11:49:08,42.805,6.029,CST-1368DR,4314,4734,11653,01.171,552
2023-04-28T11:52:09,42.805,6.029,CST-1368DR,4314,4733,11648,01.173,552
2023-04-28T11:55:11,42.805,6.029,CST-1368DR,4314,4738,11662,01.168,551
2023-04-28T11:58:12,42.805,6.029,CST-1368DR,4314,4732,11648,01.173,551
2023-04-28T12:01:14,42.805,6.029,CST-1368DR,4314,4730,11641,01.175,552
2023-04-28T12:04:16,42.805,6.029,CST-1368DR,4314,4736,11657,01.170,551
2023-04-28T12:07:17,42.805,6.029,CST-1368DR,4314,4734,11652,01.171,551
2023-04-28T12:10:19,42.805,6.029,CST-1368DR,4314,4734,11651,01.172,551
2023-04-28T12:13:20,42.805,6.029,CST-1368DR,4314,4739,11664,01.167,551
2023-04-28T12:16:22,42.805,6.029,CST-1368DR,4314,4737,11659,01.169,551
2023-04-28T12:19:24,42.805,6.029,CST-1368DR,4314,4735,11655,01.170,551
2023-04-28T12:22:25,42.805,6.029,CST-1368DR,4314,4733,11649,01.172,551
2023-04-28T12:25:27,42.805,6.029,CST-1368DR,4314,4728,11636,01.177,551
2023-04-28T12:28:28,42.805,6.029,CST-1368DR,4314,4736,11656,01.170,551
2023-04-28T12:31:30,42.805,6.029,CST-1368DR,4314,4733,11649,01.172,552
2023-04-28T12:34:31,42.805,6.029,CST-1368DR,4314,4730,11641,01.175,551
2023-04-28T12:37:33,42.805,6.029,CST-1368DR,4314,4735,11655,01.170,551
2023-04-28T12:40:35,42.805,6.029,CST-1368DR,4314,4733,11649,01.172,551
2023-04-28T12:43:36,42.805,6.029,CST-1368DR,4314,4728,11636,01.177,552
2023-04-28T12:46:38,42.805,6.029,CST-1368DR,4314,4733,11648,01.173,552
2023-04-28T12:49:39,42.805,6.029,CST-1368DR,4314,4739,11663,01.167,552
2023-04-28T12:52:41,42.805,6.029,CST-1368DR,4314,4733,11649,01.172,552
2023-04-28T12:55:43,42.805,6.029,CST-1368DR,4314,4733,11649,01.172,552
2023-04-28T12:58:44,42.805,6.029,CST-1368DR,4314,4731,11644,01.174,552
2023-04-28T13:01:46,42.805,6.029,CST-1368DR,4314,4734,11652,01.171,551
2023-04-28T13:04:47,42.805,6.029,CST-1368DR,4314,4732,11646,01.173,551
2023-04-28T13:07:49,42.805,6.029,CST-1368DR,4314,4733,11649,01.172,552
2023-04-28T13:10:50,42.805,6.029,CST-1368DR,4314,4736,11657,01.170,551
2023-04-28T13:13:52,42.805,6.029,CST-1368DR,4314,4739,11664,01.167,551
2023-04-28T13:16:54,42.805,6.029,CST-1368DR,4314,4738,11662,01.168,551
2023-04-28T13:19:55,42.805,6.029,CST-1368DR,4314,4736,11656,01.170,552
2023-04-28T13:22:57,42.805,6.029,CST-1368DR,4314,4730,11641,01.175,552
2023-04-28T13:25:58,42.805,6.029,CST-1368DR,4314,4734,11651,01.172,552
2023-04-28T13:29:00,42.805,6.029,CST-1368DR,4314,4732,11647,01.173,551
2023-04-28T13:32:01,42.805,6.029,CST-1368DR,4314,4736,11657,01.170,552
2023-04-28T13:35:03,42.805,6.029,CST-1368DR,4314,4734,11652,01.171,552
2023-04-28T13:38:05,42.805,6.029,CST-1368DR,4314,4734,11653,01.171,551
2023-04-28T13:41:06,42.805,6.029,CST-1368DR,4314,4735,11654,01.171,551
2023-04-28T13:44:08,42.805,6.029,CST-1368DR,4314,4738,11662,01.168,551
2023-04-28T13:47:09,42.805,6.029,CST-1368DR,4314,4739,11663,01.167,552
2023-04-28T13:50:11,42.805,6.029,CST-1368DR,4314,4734,11651,01.172,552
2023-04-28T13:53:12,42.805,6.029,CST-1368DR,4314,4732,11646,01.173,551
2023-04-28T13:56:14,42.805,6.029,CST-1368DR,4314,4733,11649,01.172,552
2023-04-28T13:59:16,42.805,6.029,CST-1368DR,4314,4737,11658,01.169,552
2023-04-28T14:02:17,42.805,6.029,CST-1368DR,4314,4733,11648,01.173,552
2023-04-28T14:05:19,42.805,6.029,CST-1368DR,4314,4734,11653,01.171,552
2023-04-28T14:08:20,42.805,6.029,CST-1368DR,4314,4735,11654,01.171,552
2023-04-28T14:11:22,42.805,6.029,CST-1368DR,4314,4733,11649,01.172,552
2023-04-28T14:14:24,42.805,6.029,CST-1368DR,4314,4733,11650,01.172,552
2023-04-28T14:17:25,42.805,6.029,CST-1368DR,4314,4731,11643,01.174,552
2023-04-28T14:20:27,42.805,6.029,CST-1368DR,4314,4735,11655,01.170,552
2023-04-28T14:23:28,42.805,6.029,CST-1368DR,4314,4736,11656,01.170,552
2023-04-28T14:26:30,42.805,6.029,CST-1368DR,4314,4733,11648,01.173,552
2023-04-28T14:29:31,42.805,6.029,CST-1368DR,4314,4730,11641,01.175,551
2023-04-28T14:32:33,42.805,6.029,CST-1368DR,4314,4734,11652,01.171,551
2023-04-28T14:35:34,42.805,6.029,CST-1368DR,4314,4737,11659,01.169,551
2023-04-28T14:38:36,42.805,6.029,CST-1368DR,4314,4733,11649,01.172,551
2023-04-28T14:41:37,42.805,6.029,CST-1368DR,4314,4734,11653,01.171,552
2023-04-28T14:44:39,42.805,6.029,CST-1368DR,4314,4731,11645,01.174,552
2023-04-28T14:47:40,42.805,6.029,CST-1368DR,4314,4740,11667,01.166,552
2023-04-28T14:50:42,42.805,6.029,CST-1368DR,4314,4729,11639,01.176,552
2023-04-28T14:53:44,42.805,6.029,CST-1368DR,4314,4735,11654,01.171,551
2023-04-28T14:56:45,42.805,6.029,CST-1368DR,4314,4732,11646,01.173,552
2023-04-28T14:59:47,42.805,6.029,CST-1368DR,4314,4738,11662,01.168,551
2023-04-28T15:02:48,42.805,6.029,CST-1368DR,4314,4736,11657,01.170,551
2023-04-28T15:05:50,42.805,6.029,CST-1368DR,4314,4735,11654,01.171,552
2023-04-28T15:08:52,42.805,6.029,CST-1368DR,4314,4733,11648,01.173,551
2023-04-28T15:11:53,42.805,6.029,CST-1368DR,4314,4731,11645,01.174,552
2023-04-28T15:14:55,42.805,6.029,CST-1368DR,4314,4735,11654,01.171,551
2023-04-28T15:17:56,42.805,6.029,CST-1368DR,4314,4728,11637,01.176,552
2023-04-28T15:20:58,42.805,6.029,CST-1368DR,4314,4732,11646,01.173,552
2023-04-28T15:23:59,42.805,6.029,CST-1368DR,4314,4733,11649,01.172,551
2023-04-28T15:27:01,42.805,6.029,CST-1368DR,4314,4733,11649,01.172,552
2023-04-28T15:30:03,42.805,6.029,CST-1368DR,4314,4731,11643,01.174,551
2023-04-28T15:33:04,42.805,6.029,CST-1368DR,4314,4730,11641,01.175,551
2023-04-28T15:36:06,42.805,6.029,CST-1368DR,4314,4734,11653,01.171,551
2023-04-28T15:39:07,42.805,6.029,CST-1368DR,4314,4736,11656,01.170,552
2023-04-28T15:42:09,42.805,6.029,CST-1368DR,4314,4739,11664,01.167,551
2023-04-28T15:45:10,42.805,6.029,CST-1368DR,4314,4733,11649,01.172,551
2023-04-28T15:48:12,42.805,6.029,CST-1368DR,4314,4733,11649,01.172,551
2023-04-28T15:51:14,42.805,6.029,CST-1368DR,4314,4731,11645,01.174,552
2023-04-28T15:54:15,42.805,6.029,CST-1368DR,4314,4734,11652,01.171,551
2023-04-28T15:57:17,42.805,6.029,CST-1368DR,4314,4734,11651,01.172,552
2023-04-28T16:00:18,42.805,6.029,CST-1368DR,4314,4736,11656,01.170,551
2023-04-28T16:03:20,42.805,6.029,CST-1368DR,4314,4733,11648,01.173,551
2023-04-28T16:06:21,42.805,6.029,CST-1368DR,4314,4737,11659,01.169,551
2023-04-28T16:09:23,42.805,6.029,CST-1368DR,4314,4734,11653,01.171,551
2023-04-28T16:12:25,42.805,6.029,CST-1368DR,4314,4733,11648,01.173,552
2023-04-28T16:15:26,42.805,6.029,CST-1368DR,4314,4734,11651,01.172,552
2023-04-28T16:18:28,42.805,6.029,CST-1368DR,4314,4733,11649,01.172,552
2023-04-28T16:21:29,42.805,6.029,CST-1368DR,4314,4733,11649,01.172,551
2023-04-28T16:24:31,42.805,6.029,CST-1368DR,4314,4735,11654,01.171,552
2023-04-28T16:27:33,42.805,6.029,CST-1368DR,4314,4733,11650,01.172,552
2023-04-28T16:30:35,42.805,6.029,CST-1368DR,4314,4734,11652,01.171,551
2023-04-28T16:33:37,42.805,6.029,CST-1368DR,4314,4736,11657,01.170,551
2023-04-28T16:36:38,42.805,6.029,CST-1368DR,4314,4734,11651,01.172,552